Погода в Акации

Россия / Кемеровская область (Кузбасс)     55°44′08″N   85°21′48″E
темп.,
°C
ветер,
м/с
пор.,
м/с
влажн.,
%
обл.,
%
осадки,
мм/ч
давл.,
гПа
погр.,
м
18 мая, вт
вт1801:00+11ю33828 0.0 101132
04:00+11ю41091100 0.1 1007180
07:00+13юв3493100 1.1 100381
10:00+16зсз61081100 1.1 1002962
13:00+16ссз577269 1.4 10041026
16:00+19ссз566246 0.3 10051364
19:00+14ссв557985 0.6 1006521
22:00+10всв4788100 0.0 1007336
19 мая, ср
ср1901:00+10всв3687100 0.0 1006355
04:00+8св51092100 2.1 1005514
07:00+8св41185100 4.1 1006619
10:00+11св710425 0.0 10071029
13:00+13ссв773585 0.0 10082203
16:00+13с7836100 0.0 10092400
19:00+11с773997 0.0 10112128
22:00+6с494127 0.0 1013301
20 мая, чт
чт2001:00+2с38550 0.0 1013158
04:00+1с36605 0.0 1013104
07:00+2с595532 0.0 1014416
10:00+6с674399 0.1 10142051
13:00+6с6638100 0.1 10152249
16:00+7с6734100 0.0 10162745
19:00+7с6843100 0.0 10172029
22:00+2сз336753 0.1 101846
21 мая, пт
пт2101:00+2сз275988 0.1 1019150
04:000ссз346798 0.0 102180
07:00+3ссз4105868 0.0 1022274
10:00+9ссз46395 0.0 10231093
13:00+12зсз453389 0.0 10232046
16:00+12зсз563298 0.0 10232234
19:00+12з453998 0.0 10231012
22:00+7юз3954100 0.0 1024189
22 мая, сб
сб2201:00+7юз3954100 0.0 1023200
04:00+7юз3947100 0.0 1023247
07:00+8ю4956100 0.0 1023312
10:00+11зюз7945100 0.0 10221611
13:00+7юз71285100 1.1 10221015
16:00+6ююз71390100 1.2 1021774
19:00+6юз4989100 1.3 1021635
22:00+6ююз2593100 0.1 1021291